Regional Weather Roundup
Issued by NWS

Home | Current Version | Previous Version | Graphics & Text | Print | Product List | Glossary On
Versions: 1 2 3 4 5 6 7 8 9 10 11 12 13 14 15 16 17 18 19 20 21 22 23 24 25 26 27
000
ASUS45 KTFX 252310
RWRMT
MONTANA REGIONAL WEATHER ROUNDUP
NATIONAL WEATHER SERVICE GREAT FALLS MT
500 PM MDT MON JUL 25 2016

NOTE: "FAIR" INDICATES FEW OR NO CLOUDS BELOW 12000 FEET WITH NO
SIGNIFICANT WEATHER AND/OR OBSTRUCTIONS TO VISIBILITY.

MTZ001>007-043-260000-
WEST OF THE DIVIDE

CITY           SKY/WX    TMP DP  RH WIND       PRES   REMARKS
KALISPELL      SUNNY     87  49  26 SE13      30.01F
MISSOULA       SUNNY     91  43  18 W7        30.00F
BUTTE          CLOUDY    83  35  18 SW5       30.13F
MULLAN PASS    SUNNY     74  42  31 VRB6      30.23F
ANACONDA         N/A     73  45  35 NE7       30.11R
DEER LODGE       N/A     84  43  23 NW12G17   30.10F
EUREKA           N/A     90  43  19 CALM      29.99F
HAMILTON         N/A     88  39  18 CALM      30.03F
LIBBY            N/A     90  45  20 N5        29.98F
RONAN            N/A     87  49  26 NE1       30.08F
$$

MTZ008-052>055-260000-
SOUTHWEST MONTANA

CITY           SKY/WX    TMP DP  RH WIND       PRES   REMARKS
BOZEMAN        SUNNY     91  40  16 VRB7      30.04F
DILLON         SUNNY     85  38  18 N8        30.07F
W YELLOWSTONE  SUNNY     84  16   8 SW13G30   30.21F
ENNIS          SUNNY     86  32  14 N5        30.14S
THREE FORKS      N/A     92 N/A N/A NE3       30.01F
TWIN BRIDGES     N/A     87  34  15 S3        30.06F
$$

MTZ009-010-012-014-046-048-049-054-260000-
EAST SLOPES AND CENTRAL MONTANA

CITY           SKY/WX    TMP DP  RH WIND       PRES   REMARKS
CUT BANK         N/A     82  50  32 VRB5      30.09F
GREAT FALLS    SUNNY     90  41  18 CALM      30.04F
MALMSTROM AFB  SUNNY     87  42  20 W6        30.03F
HELENA         SUNNY     94  40  15 NE9       30.00F HX  90
CHOTEAU          N/A     84  46  26 N12       30.10S
$$

MTZ011-013-016-021-045-047-050-051-260000-
NORTH CENTRAL MONTANA

CITY           SKY/WX    TMP DP  RH WIND       PRES   REMARKS
HAVRE            N/A     93  46  19 CALM      29.97F
LEWISTOWN      SUNNY     83  49  30 N8        30.09F
N BAR RANCH    PTSUNNY   82  46  28 VRB3G12   30.11S
CHINOOK          N/A     91  48  22 CALM      29.97F
$$

MTZ017>020-022>027-061-062-260000-
NORTHEAST MONTANA

CITY           SKY/WX    TMP DP  RH WIND       PRES   REMARKS
GLASGOW        SUNNY     91  47  21 S7G16     29.96S
JORDAN           N/A     96  43  16 NE15      29.95F HX  92
SIDNEY         SUNNY     91  55  29 NE12      29.95S
WOLF POINT     SUNNY     94  49  21 N7        29.95F HX  90
PLENTYWOOD       N/A     90  50  25 NW8       29.98S
POPLAR           N/A     90  48  24 N6        29.96S
$$

MTZ028>42-056>058-260000-
SOUTHCENTRAL AND SOUTHEAST MONTANA

CITY           SKY/WX    TMP DP  RH WIND       PRES   REMARKS
BAKER          SUNNY     96  44  16 NE9       29.97F HX  92
BILLINGS       MOSUNNY   96  33  11 NE12      29.97F HX  91
LIVINGSTON     SUNNY     95  31  10 CALM      30.02F
MILES CITY     SUNNY     99  37  11 N7        29.92F HX  94
FORSYTH          N/A     99  39  12 W3        29.93S HX  94
LAUREL           N/A     96  39  13 NE6       29.97F HX  91
ROUNDUP          N/A     91  45  20 N6        29.93F
$$

REGIONAL REPORTS...DAKOTAS

CITY           SKY/WX    TMP DP  RH WIND       PRES   REMARKS
WILLISTON      SUNNY     91  53  27 N8        29.96S
MINOT          SUNNY     90  64  42 VRB5      29.94S HX  91
DICKINSON      SUNNY     92  44  19 CALM      29.94F
BEACH            N/A     91  50  24 NE7       30.00S
CROSBY           N/A     84  61  45 CALM      29.99S
WATFORD CITY     N/A    N/A N/A N/A MISG        N/A
BISMARCK       SUNNY     94  61  33 N3        29.91F HX  94
GRAND FORKS    MOSUNNY   90  66  45 S7        29.91F HX  92
FARGO          SUNNY     90  59  35 SW13      29.93F
BUFFALO SD       N/A     95  42  16 SE5       29.89F HX  91
RAPID CITY     CLOUDY    84  57  39 S17       29.99F
$$

REGIONAL REPORTS...WYOMING/IDAHO/WASHINGTON

CITY           SKY/WX    TMP DP  RH WIND       PRES   REMARKS
GILLETTE       SUNNY     94  31  10 SE9       30.02F
SHERIDAN       SUNNY     98  34  10 W3        29.98F HX  92
BUFFALO WY     SUNNY     96  32  10 N9        30.06F HX  90
CODY           SUNNY     90  37  15 NE7       30.06F
YELLOWSTONE LA   N/A     77  19  11 VRB6G20   30.34F
IDAHO FALLS    SUNNY     94  28   9 SW15      30.06F
SALMON         MOSUNNY   88  52  29 W5        29.98S
BOISE          SUNNY     98  33  10 N6        29.94F HX  92
SPOKANE        MOSUNNY   89  44  20 VRB3      30.00F
$$

REGIONAL REPORTS...ALBERTA

CITY           SKY/WX    TMP DP  RH WIND       PRES   REMARKS
EDMONTON       MOSUNNY   77  50  38 SW7       30.03F
CALGARY        PTSUNNY   73  54  49 SE14G21   30.07F
LETHBRIDGE     MOSUNNY   79  55  44 E6        30.07F
MEDICINE HAT   MOSUNNY   82  54  36 NE9       30.03F
WATERTON GATE    N/A     77  54  44 NE8         N/A
MILK RIVER       N/A     82  55  39 NE8         N/A
$$

REGIONAL REPORTS...SASKATCHEWAN

CITY           SKY/WX    TMP DP  RH WIND       PRES   REMARKS
SWIFT CURRENT  MOSUNNY   77  59  53 N10       30.06S
REGINA         MOSUNNY   81  63  54 N10       30.00R
SASKATOON      MOSUNNY   77  45  31 NW12G20   30.04S
VAL MARIE        N/A     82  57  42 NE16G24     N/A
ROCKGLEN         N/A     81  55  41 N10         N/A
ASSINIBOIA       N/A     75  46  35 SW3         N/A
$$




USA.gov is the U.S. government's official web portal to all federal, state and local government web resources and services.